Overview Statistics Trail Chart Weather Telemetry Raw packets
 

This is the latest recevied weather packets stored in our database for station/object KC5DAQ-2. If no packets are shown the sender has not sent any weather packets the latest 10 day(s).

<< 49 50 51 52 53 54 55 >>
Time Temp. Humidity Pressure Rain* Wind** Luminosity Snow
1788647884 31.11° C 82% 1004.3 hPa 6.86 mm - 12 W/m² -
1788647823 31.11° C 82% 1004.3 hPa 6.6 mm - 12 W/m² -
1788647767 31.11° C 82% 1004.4 hPa 6.1 mm - 12 W/m² -
1788647703 31.11° C 82% 1004.4 hPa 5.59 mm - 12 W/m² -
1788647644 31.67° C 82% 1004.3 hPa 5.33 mm - 12 W/m² -
1788647584 31.67° C 82% 1004.3 hPa 5.08 mm - 14 W/m² -
1788647522 31.67° C 82% 1004.2 hPa 4.83 mm - 14 W/m² -
1788647463 31.67° C 82% 1004.2 hPa 4.32 mm - 12 W/m² -
1788647404 31.67° C 81% 1004.1 hPa 3.81 mm - 12 W/m² -
1788647342 32.22° C 81% 1004.1 hPa 3.3 mm - 12 W/m² -
1788647287 32.22° C 82% 1004.2 hPa 3.05 mm - 12 W/m² -
1788647225 32.22° C 81% 1004.1 hPa 2.54 mm - 12 W/m² -
1788647163 32.22° C 81% 1004.1 hPa 1.78 mm - 12 W/m² -
1788647103 32.22° C 81% 1004.1 hPa 1.27 mm - 11 W/m² -
1788647042 32.78° C 80% 1004.1 hPa 1.02 mm - 11 W/m² -
1788646983 32.78° C 80% 1004.1 hPa 0.76 mm - 11 W/m² -
1788646946 32.78° C 80% 1004.1 hPa 0.25 mm - 11 W/m² -
1788646862 32.78° C 79% 1004.2 hPa 0.25 mm - 11 W/m² -
1788646800 32.78° C 79% 1004.2 hPa 0 mm - 5 W/m² -
1788646732 32.78° C 79% 1004.2 hPa 0 mm - 5 W/m² -
1788646657 33.33° C 79% 1004.2 hPa 0 mm - 5 W/m² -
1788646592 33.33° C 79% 1004.3 hPa 0 mm - 5 W/m² -
1788646532 33.33° C 79% 1004.3 hPa 0 mm - 5 W/m² -
1788646471 33.33° C 79% 1004.1 hPa 0 mm - 5 W/m² -
1788646416 33.33° C 79% 1004.1 hPa 0 mm - 5 W/m² -

* Rain latest hour (hover to see other rain measurements)
** Current wind speed in m/s (hover to see current wind gust speed)